Tracking 19795 objects as of 20-Jul-2019
HD Live streaming from Space Station
objects crossing your sky now

COSMOS 2227

Track COSMOS 2227 now!
10-day predictions
COSMOS 2227 is classified as:


NORAD ID: 22284
Int'l Code: 1992-093A
Perigee: 843.4 km
Apogee: 867.0 km
Inclination: 71.0 °
Period: 101.9 minutes
Semi major axis: 7226 km
RCS: 7.0075 m2 (large)
Launch date: December 25, 1992
Source: Commonwealth of Independent States (former USSR) (CIS)
Launch site: TYURATAM MISSILE AND SPACE COMPLEX (TTMTR)
aabbcc
Your satellite tracking list
Your tracking list is empty




NASA's NSSDC Master Catalog

Two Line Element Set (TLE):
1 22284U 92093A   19200.88889099 -.00000047 +00000-0 +20341-6 0  9990
2 22284 070.9814 076.5882 0016327 099.5616 260.7351 14.13313701370132
Source of the keplerian elements: AFSPC